| time (UTC) | temp F | wind direction | speed MPH | gust MPH | rain 1hr in | rain 24hr in | rain mn in | humidity % | barometer mb |
| 20260831204538 | 93 | 175 | 7.0 | 13.0 | 0.00 | 0.00 | 0.00 | 53 | 1013.4 |
| 20260831203029 | 93 | 215 | 8.0 | 15.0 | 0.00 | 0.00 | 0.00 | 52 | 1013.6 |
| 20260831200049 | 92 | 196 | 7.0 | 12.0 | 0.00 | 0.00 | 0.00 | 54 | 1013.9 |
| 20260831194527 | 93 | 217 | 7.0 | 13.0 | 0.00 | 0.00 | 0.00 | 53 | 1013.8 |
| 20260831193021 | 92 | 173 | 7.0 | 13.0 | 0.00 | 0.00 | 0.00 | 53 | 1014.0 |
| 20260831191521 | 92 | 175 | 7.0 | 16.0 | 0.00 | 0.00 | 0.00 | 53 | 1014.1 |
| 20260831190031 | 92 | 194 | 7.0 | 12.0 | 0.00 | 0.00 | 0.00 | 53 | 1014.3 |
| 20260831184518 | 92 | 209 | 9.0 | 13.0 | 0.00 | 0.00 | 0.00 | 53 | 1014.5 |
| 20260831183016 | 91 | 244 | 8.0 | 13.0 | 0.00 | 0.00 | 0.00 | 52 | 1014.8 |
| 20260831181523 | 91 | 234 | 7.0 | 12.0 | 0.00 | 0.00 | 0.00 | 55 | 1015.0 |
| 20260831180015 | 91 | 202 | 7.0 | 12.0 | 0.00 | 0.00 | 0.00 | 54 | 1015.2 |
| 20260831174513 | 91 | 223 | 7.0 | 12.0 | 0.00 | 0.00 | 0.00 | 53 | 1015.2 |
| 20260831173012 | 91 | 188 | 6.0 | 10.0 | 0.00 | 0.00 | 0.00 | 55 | 1015.2 |
| 20260831171510 | 90 | 184 | 5.0 | 11.0 | 0.00 | 0.00 | 0.00 | 57 | 1015.2 |
| 20260831170010 | 89 | 215 | 8.0 | 13.0 | 0.00 | 0.00 | 0.00 | 56 | 1015.4 |
| 20260831164516 | 88 | 212 | 4.0 | 12.0 | 0.00 | 0.00 | 0.00 | 56 | 1015.5 |
| 20260831163013 | 88 | 202 | 7.0 | 12.0 | 0.00 | 0.00 | 0.00 | 57 | 1015.7 |
| 20260831161507 | 87 | 207 | 6.0 | 10.0 | 0.00 | 0.00 | 0.00 | 56 | 1015.6 |
| 20260831160002 | 86 | 219 | 6.0 | 13.0 | 0.00 | 0.00 | 0.00 | 58 | 1015.6 |
| 20260831154501 | 86 | 191 | 5.0 | 13.0 | 0.00 | 0.00 | 0.00 | 58 | 1015.6 |
| 20260831153100 | 85 | 186 | 10.0 | 14.0 | 0.00 | 0.00 | 0.00 | 57 | 1015.7 |
| 20260831151557 | 84 | 220 | 7.0 | 13.0 | 0.00 | 0.00 | 0.00 | 60 | 1015.7 |
| 20260831150055 | 83 | 178 | 5.0 | 11.0 | 0.00 | 0.00 | 0.00 | 63 | 1015.6 |
| 20260831144552 | 82 | 213 | 6.0 | 10.0 | 0.00 | 0.00 | 0.00 | 64 | 1015.5 |
| 20260831143050 | 81 | 200 | 7.0 | 11.0 | 0.00 | 0.00 | 0.00 | 65 | 1015.5 |
| 20260831141552 | 80 | 213 | 3.0 | 10.0 | 0.00 | 0.00 | 0.00 | 67 | 1015.5 |
| 20260831140046 | 80 | 199 | 5.0 | 12.0 | 0.00 | 0.00 | 0.00 | 66 | 1015.5 |
| 20260831134547 | 78 | 211 | 6.0 | 12.0 | 0.00 | 0.00 | 0.00 | 69 | 1015.5 |
| 20260831133040 | 77 | 198 | 6.0 | 13.0 | 0.00 | 0.00 | 0.00 | 71 | 1015.5 |
| 20260831131538 | 76 | 209 | 5.0 | 10.0 | 0.00 | 0.00 | 0.00 | 72 | 1015.5 |
| 20260831130136 | 75 | 200 | 4.0 | 8.0 | 0.00 | 0.00 | 0.00 | 74 | 1015.4 |
| 20260831124535 | 74 | 216 | 2.0 | 7.0 | 0.00 | 0.00 | 0.00 | 76 | 1015.4 |
| 20260831123032 | 72 | 200 | 4.0 | 7.0 | 0.00 | 0.00 | 0.00 | 78 | 1015.1 |
| 20260831121532 | 71 | 209 | 3.0 | 6.0 | 0.00 | 0.00 | 0.00 | 79 | 1014.9 |
| 20260831120033 | 71 | 215 | 4.0 | 7.0 | 0.00 | 0.00 | 0.00 | 79 | 1014.8 |
| 20260831114532 | 71 | 204 | 2.0 | 6.0 | 0.00 | 0.00 | 0.00 | 80 | 1014.7 |
| 20260831113030 | 71 | 211 | 2.0 | 6.0 | 0.00 | 0.00 | 0.00 | 80 | 1014.7 |
| 20260831111530 | 70 | 214 | 3.0 | 5.0 | 0.00 | 0.00 | 0.00 | 81 | 1014.6 |
| 20260831110028 | 70 | 185 | 1.0 | 5.0 | 0.00 | 0.00 | 0.00 | 82 | 1014.4 |
| 20260831104535 | 70 | 182 | 2.0 | 5.0 | 0.00 | 0.00 | 0.00 | 82 | 1014.5 |
| 20260831103027 | 70 | 181 | 2.0 | 4.0 | 0.00 | 0.00 | 0.00 | 82 | 1014.5 |
| 20260831101527 | 70 | 183 | 1.0 | 6.0 | 0.00 | 0.00 | 0.00 | 81 | 1014.4 |
| 20260831100033 | 70 | 186 | 3.0 | 6.0 | 0.00 | 0.00 | 0.00 | 81 | 1014.4 |
| 20260831094522 | 70 | 188 | 3.0 | 6.0 | 0.00 | 0.00 | 0.00 | 80 | 1014.5 |
| 20260831093025 | 71 | 188 | 3.0 | 7.0 | 0.00 | 0.00 | 0.00 | 79 | 1014.5 |
| 20260831091518 | 72 | 190 | 2.0 | 7.0 | 0.00 | 0.00 | 0.00 | 78 | 1014.4 |
| 20260831090017 | 72 | 190 | 4.0 | 7.0 | 0.00 | 0.00 | 0.00 | 77 | 1014.4 |
| 20260831084523 | 72 | 185 | 3.0 | 7.0 | 0.00 | 0.00 | 0.00 | 77 | 1014.3 |
| 20260831083014 | 73 | 186 | 3.0 | 9.0 | 0.00 | 0.00 | 0.00 | 76 | 1014.2 |
| 20260831081512 | 74 | 185 | 3.0 | 6.0 | 0.00 | 0.00 | 0.00 | 74 | 1014.2 |
| 20260831080010 | 74 | 192 | 3.0 | 6.0 | 0.00 | 0.00 | 0.00 | 73 | 1014.3 |
| 20260831074511 | 74 | 199 | 3.0 | 6.0 | 0.00 | 0.00 | 0.00 | 73 | 1014.2 |
| 20260831073009 | 75 | 205 | 3.0 | 6.0 | 0.00 | 0.00 | 0.00 | 73 | 1014.3 |
| 20260831071507 | 75 | 196 | 4.0 | 7.0 | 0.00 | 0.00 | 0.00 | 72 | 1014.4 |
| 20260831070007 | 75 | 190 | 4.0 | 8.0 | 0.00 | 0.00 | 0.00 | 73 | 1014.5 |
| 20260831063005 | 75 | 190 | 4.0 | 7.0 | 0.00 | 0.00 | 0.00 | 72 | 1014.7 |
| 20260831061503 | 75 | 188 | 3.0 | 6.0 | 0.00 | 0.00 | 0.00 | 73 | 1014.8 |
| 20260831060002 | 74 | 188 | 0.0 | 3.0 | 0.00 | 0.00 | 0.00 | 76 | 1015.0 |
| 20260831054601 | 74 | 188 | 0.0 | 0.0 | 0.00 | 0.00 | 0.00 | 77 | 1014.9 |
| 20260831053131 | 75 | 188 | 0.0 | 3.0 | 0.00 | 0.00 | 0.00 | 75 | 1015.1 |
| 20260831051604 | 75 | 190 | 3.0 | 6.0 | 0.00 | 0.00 | 0.00 | 73 | 1015.0 |
| 20260831050054 | 74 | 192 | 0.0 | 1.0 | 0.00 | 0.00 | 0.00 | 77 | 1015.0 |
| 20260831044553 | 75 | 192 | 0.0 | 0.0 | 0.00 | 0.00 | 0.00 | 76 | 1015.0 |
| 20260831043053 | 76 | 192 | 0.0 | 0.0 | 0.00 | 0.00 | 0.00 | 75 | 1015.0 |
| 20260831041556 | 75 | 192 | 0.0 | 5.0 | 0.00 | 0.00 | 0.00 | 75 | 1014.8 |
| 20260831040052 | 77 | 191 | 0.0 | 0.0 | 0.00 | 0.00 | 0.00 | 72 | 1014.9 |
| 20260831034552 | 78 | 191 | 0.0 | 4.0 | 0.00 | 0.00 | 0.00 | 68 | 1014.9 |
| 20260831033105 | 79 | 192 | 1.0 | 4.0 | 0.00 | 0.00 | 0.00 | 67 | 1014.9 |
| 20260831031552 | 80 | 193 | 1.0 | 5.0 | 0.00 | 0.00 | 0.00 | 65 | 1014.9 |
| 20260831030049 | 79 | 187 | 3.0 | 7.0 | 0.00 | 0.00 | 0.00 | 66 | 1014.7 |
| 20260831024549 | 80 | 193 | 3.0 | 5.0 | 0.00 | 0.00 | 0.00 | 64 | 1014.8 |
| 20260831023048 | 80 | 190 | 0.0 | 5.0 | 0.00 | 0.00 | 0.00 | 63 | 1014.8 |
| 20260831021548 | 79 | 191 | 2.0 | 4.0 | 0.00 | 0.00 | 0.00 | 66 | 1014.5 |
| 20260831020105 | 78 | 191 | 0.0 | 1.0 | 0.00 | 0.00 | 0.00 | 69 | 1014.6 |
| 20260831014546 | 79 | 191 | 0.0 | 3.0 | 0.00 | 0.00 | 0.00 | 65 | 1014.6 |
| 20260831013046 | 80 | 191 | 0.0 | 2.0 | 0.00 | 0.00 | 0.00 | 64 | 1014.5 |
| 20260831011547 | 80 | 191 | 2.0 | 7.0 | 0.00 | 0.00 | 0.00 | 63 | 1014.2 |
| 20260831010044 | 80 | 194 | 3.0 | 6.0 | 0.00 | 0.00 | 0.00 | 63 | 1014.3 |
| 20260831004545 | 80 | 194 | 0.0 | 3.0 | 0.00 | 0.00 | 0.00 | 64 | 1014.3 |
| 20260831003044 | 82 | 194 | 1.0 | 4.0 | 0.00 | 0.00 | 0.00 | 62 | 1014.3 |
| 20260831001543 | 83 | 194 | 2.0 | 6.0 | 0.00 | 0.00 | 0.00 | 60 | 1014.4 |
| 20260831000045 | 84 | 194 | 3.0 | 6.0 | 0.00 | 0.00 | 0.00 | 60 | 1014.5 |
| 20260830234541 | 84 | 186 | 2.0 | 7.0 | 0.00 | 0.00 | 0.00 | 61 | 1014.5 |
| 20260830233140 | 84 | 188 | 3.0 | 7.0 | 0.00 | 0.00 | 0.00 | 62 | 1014.5 |
| 20260830231540 | 86 | 180 | 4.0 | 9.0 | 0.00 | 0.00 | 0.00 | 58 | 1014.5 |
| 20260830230039 | 86 | 225 | 4.0 | 10.0 | 0.00 | 0.00 | 0.00 | 56 | 1014.5 |
| 20260830224538 | 87 | 180 | 4.0 | 10.0 | 0.00 | 0.00 | 0.00 | 56 | 1014.4 |
| 20260830223038 | 86 | 196 | 4.0 | 12.0 | 0.00 | 0.00 | 0.00 | 56 | 1014.4 |
| 20260830221541 | 87 | 221 | 5.0 | 10.0 | 0.00 | 0.00 | 0.00 | 56 | 1014.3 |
| 20260830220036 | 87 | 201 | 5.0 | 12.0 | 0.00 | 0.00 | 0.00 | 55 | 1014.4 |
| 20260830214535 | 87 | 178 | 5.0 | 11.0 | 0.00 | 0.00 | 0.00 | 57 | 1014.6 |
| 20260830213037 | 87 | 215 | 5.0 | 7.0 | 0.00 | 0.00 | 0.00 | 57 | 1014.6 |
| 20260830211532 | 87 | 190 | 7.0 | 12.0 | 0.00 | 0.00 | 0.00 | 53 | 1014.7 |
| 20260830210030 | 88 | 186 | 7.0 | 13.0 | 0.00 | 0.00 | 0.00 | 53 | 1014.9 |